Home > Weather > Tianjin > Past weeks

Flag for China Weather for the Past 2 Weeks in Tianjin, Tianjin Municipality, China

Now
50 °F

Sunny.


Feels Like: 43 °F
Forecast: 26 / 51 °F
Wind: 22 mph from Northwest

Location: Tianjin / Zhangguizhu

Current Time: Feb 8, 2016 at 12:17:10 PM

Latest Report: Feb 8, 2016 at 11:30 AM


Visibility: 10 mi

Pressure: 29.98 "Hg

Humidity: 14%

Dew point: 3 °F

Location of TianjinLocation

Historic Weather in Tianjin — Graph

°F

Tianjin Temperature Yesterday

Maximum temperature yesterday: 46 °F (at 1:00 PM)
Minimum temperature yesterday: 18 °F (at 5:00 AM)
Average temperature yesterday: 35 °F

High & Low Weather Summary for the Past Weeks

 TemperatureHumidityPressure
High50 °F (Feb 8, 11:00 AM)86% (Jan 28, 5:30 AM)30.72 "Hg (Jan 28, 5:30 AM)
Low12 °F (Jan 31, 4:00 AM)12% (Feb 4, 2:30 PM)29.89 "Hg (Feb 8, 6:00 AM)
Average29 °F35%30.42 "Hg
* Reported Jan 24 11:00 AM — Feb 8 11:00 AM, Tianjin, Weather by CustomWeather, © 2016

Note: Actual official high and low records may vary slightly from our data, if they occured in-between our weather recording intervals... More about our weather records

Advertising

Tianjin Weather History for the Previous 24 Hours

 ConditionsComfort  
Time TempWeatherWind HumidityBarometerVisibility
11:00 AM
Mon, Feb 8
50 °FClear.20 mph16%29.98 "Hg4 mi
10:30 AM48 °FHaze.20 mph18%29.98 "Hg2 mi
10:00 AM46 °FHaze.10 mph20%29.98 "Hg2 mi
9:00 AM41 °FHaze.8 mph22%29.95 "Hg2 mi
8:30 AM37 °FHaze.6 mph26%29.95 "Hg2 mi
7:30 AM34 °FHaze.8 mph27%29.92 "Hg3 mi
7:00 AM32 °FHaze.3 mph29%29.89 "Hg3 mi
6:30 AM34 °FHaze.3 mph27%29.89 "Hg3 mi
6:00 AM34 °FHaze.3 mph27%29.89 "Hg3 mi
5:30 AM34 °FHaze.6 mph27%29.92 "Hg3 mi
5:00 AM34 °FHaze.8 mph27%29.92 "Hg2 mi
4:30 AM32 °FHaze.6 mph29%29.92 "Hg2 mi
4:00 AM34 °FHaze.6 mph27%29.92 "Hg2 mi
3:30 AM34 °FHaze.3 mph27%29.92 "Hg2 mi
3:00 AM32 °FHaze.3 mph32%29.95 "Hg2 mi
2:30 AM34 °FHaze.3 mph27%29.95 "Hg1 mi
2:00 AM34 °FHaze.8 mph27%29.95 "Hg1 mi
1:30 AM30 °FHaze.3 mph37%29.98 "Hg1 mi
1:00 AM28 °FHaze.3 mph40%29.98 "Hg1 mi
12:30 AM37 °FHaze.3 mph23%30.01 "Hg2 mi
12:00 AM37 °FHaze.3 mph22%30.01 "Hg2 mi
11:30 PM
Sun, Feb 7
36 °FHaze.3 mph25%30.04 "Hg3 mi
11:00 PM37 °FHaze.3 mph22%30.04 "Hg3 mi
10:30 PM37 °FHaze.1 mph22%30.04 "Hg3 mi
10:00 PM37 °FHaze.3 mph20%30.04 "Hg3 mi
9:30 PM37 °FClear.1 mph22%30.04 "Hg4 mi
9:00 PM39 °FClear.6 mph18%30.04 "Hg4 mi
8:30 PM37 °FClear.6 mph22%30.04 "Hg4 mi
8:00 PM37 °FClear.3 mph22%30.04 "Hg4 mi
7:30 PM41 °FClear.3 mph17%30.04 "Hg4 mi
7:00 PM41 °FClear.3 mph17%30.07 "Hg4 mi
6:30 PM41 °FClear.6 mph17%30.07 "Hg4 mi
6:00 PM43 °FHaze.3 mph16%30.07 "Hg3 mi
5:30 PM43 °FHaze.6 mph17%30.04 "Hg3 mi
5:00 PM45 °FClear.6 mph15%30.07 "Hg4 mi
4:30 PM45 °FClear.10 mph14%30.07 "Hg5 mi
4:00 PM45 °FClear.8 mph15%30.07 "Hg5 mi
3:30 PM46 °FPassing clouds.13 mph14%30.04 "HgN/A
3:00 PM46 °FPassing clouds.13 mph14%30.07 "HgN/A
2:30 PM46 °FPassing clouds.10 mph14%30.07 "HgN/A
2:00 PM46 °FPassing clouds.13 mph14%30.07 "HgN/A
1:30 PM46 °FSunny.10 mph14%30.07 "Hg10 mi
1:00 PM46 °FPassing clouds.10 mph14%30.09 "HgN/A
12:30 PM45 °FPassing clouds.10 mph16%30.09 "HgN/A
12:00 PM45 °FPassing clouds.8 mph18%30.12 "HgN/A
Weather by CustomWeather, © 2016

See weather overviewHow to use our weather pages